Evansville Regional Airport
KEVV : now visible

Airfield :











YOU CAN JOIN US ON...

 
LOGIN :

Register | Disclaimer

   EN    FR    IT 

 









Legend :    VFR   Marginal VFR   IFR   Intensive IFR   Very Intensive IFR
Visi :
Ceiling :
>= 8 km
>= 3000ft
5 to 8 km
1000 to 3000 ft
1500m to 5 km
500 to 1000 ft
800 to 1500m
200 to 500 ft
< 800m
< 200 ft
Symbols :   Thunderstorms  Fog  Heavy snow  Heavy precipitations  Wind > 20 kt






- Airport Elevation : 418 ft
- IATA code : EVV


KEVV - Evansville Regional

CURRENT METAR :
  • 021854Z VRB04KT 10SM CLR 27/12 A3010 RMK AO2 SLP190 T02670122 $

EXPIRED METARs :
  • 021754Z VRB05KT 10SM CLR 27/13 A3012 RMK AO2 SLP194 T02670133 10267 20167 58007 $
  • 021654Z 34010KT 10SM CLR 26/12 A3013 RMK AO2 SLP198 T02610117 $

TAF KEVV
Valid from the 02 at 18:00 until the 03 at 18:00 UTC


021739Z 0218/0318 01007KT P6SM FEW080
FM030100 02002KT P6SM SKC
FM031700 05006KT P6SM FEW060 SCT200
KZID FIR / North America



MET'MAP, your aeronautical weather chart ! - Copyright ORBIFLY December 2007 - Disclaimer

ORBIFLY MET'MAP TEAM :

Programming & Development : Alexandra Zaïnal
Concept & original design : Baudouin d'Aumeries
Assistance for programming : Marc-Olivier Méhu
Technical & hardware support : Manuel Goepfert

Contact : metmap@orbifly.com




SOURCES & CREDITS :

   NOAA       Earth
Advisory